Regional Weather Roundup
Issued by NWS

Current Version | Previous Version | Text Only | Print | Product List | Glossary Off
Versions: 1 2 3 4 5 6 7 8 9 10 11 12 13 14 15 16 17 18 19 20 21 22 23 24 25 26 27 28 29 30 31 32 33 34 35 36 37 38 39 40 41 42 43 44 45 46 47 48 49 50

000
ASUS44 KMEG 280810
RWRTN
TENNESSEE HOURLY STATE WEATHER ROUNDUP
NATIONAL WEATHER SERVICE MEMPHIS TN
300 AM CDT TUE JUL 28 2015

TNZ002-004-019-021-049-052-054-088>092-280900-
WEST TENNESSEE

CITY           SKY/WX    TMP DP  RH WIND       PRES   REMARKS
MEMPHIS INTL   CLEAR     81  75  82 S3        29.95S
NWS MEMPHIS      N/A     78 N/A N/A MISG        N/A
JACKSON        CLEAR     77  74  90 CALM      29.95S FOG
DYERSBURG        N/A    N/A N/A N/A MISG        N/A
PARIS          CLEAR     72  72 100 CALM      29.96S
LEXINGTON      CLEAR     77  75  94 CALM      29.95F
$$

TNZ008-025-027-028-033-062-065-066-280900-
NORTH MIDDLE TENNESSEE

CITY           SKY/WX    TMP DP  RH WIND       PRES   REMARKS
NASHVILLE      MOCLDY    79  77  94 SE3       29.96F
CLARKSVILLE    CLOUDY    75  73  93 CALM      29.95F
SMYRNA         PTCLDY    77  76  96 CALM      29.96F
COOKEVILLE     PTCLDY    73  73 100 CALM      30.00R
CROSSVILLE     MOCLDY    72  70  93 CALM      30.05S FOG
$$

TNZ061-075-076-078-094-096-097-280900-
SOUTH MIDDLE TENNESSEE

CITY           SKY/WX    TMP DP  RH WIND       PRES   REMARKS
FAYETTEVILLE   CLEAR     73  72  94 CALM      29.99S
TULLAHOMA      CLEAR     73  72  94 CALM      30.01S
WINCHESTER     CLEAR     73  72  94 SW3       29.99F
MCMINNVILLE    PTCLDY    75  75 100 CALM      30.00S
COLUMBIA       CLEAR     75  75 100 S3        29.96F
SHELBYVILLE    CLEAR     75  75 100 E3        29.99S
$$

TNZ017-018-042-046-047-280900-
NORTHEAST TENNESSEE

CITY           SKY/WX    TMP DP  RH WIND       PRES   REMARKS
TRI CITIES     MOCLDY    72  71  97 CALM      30.04S FOG
ELIZABETHTON   PTSUNNY   70  66  88 NE3       30.04S
$$

TNZ012-013-036-069-073-074-280900-
CENTRAL EAST TENNESSEE

CITY           SKY/WX    TMP DP  RH WIND       PRES   REMARKS
KNOXVILLE      MOCLDY    76  72  87 E3        29.98F
OAK RIDGE      MOCLDY    75  71  87 CALM      30.01S
GATLINBURG     SUNNY     75  70  83 CALM      29.99F
MORRISTOWN     SUNNY     72  72 100 CALM      30.02F
$$

TNZ083-085-099-280900-
SOUTHEAST TENNESSEE

CITY           SKY/WX    TMP DP  RH WIND       PRES   REMARKS
CHATTANOOGA    CLEAR     78  74  87 CALM      29.97F
$$

SKY/WX REPORTED AS FAIR MEANS FEW OR NO CLOUDS BELOW
12 THOUSAND FEET.



USA.gov is the U.S. government's official web portal to all federal, state and local government web resources and services.